Location: 3 Angels Observatory
(30.5437°N, 88.5068°W)
Time: 20:52:31
(UTC-06:00)

Daily predictions for brighter satellites

Satellite Brightness Start Highest point End
(mag) Time Altitude Azimuth Time Altitude Azimuth Time Altitude Azimuth
Cosmos 2056 Rocket 3.7 18:02:37 10° NNW 18:08:04 88° WSW 18:13:29 10° SSE
Iridium 4 Rocket 4.3 18:08:19 10° NNE 18:11:58 22° E 18:15:24 10° SE
Cosmos 1048 Rocket 4.3 18:08:06 10° S 18:13:11 47° ESE 18:18:15 10° NNE
Cosmos 1452 Rocket 4.0 18:09:17 10° N 18:14:07 36° ENE 18:18:55 10° SE
DELTA 2 R/B (2) 3.3 18:12:29 10° NW 18:14:09 36° NNE 18:15:47 10° E
SPOT 3 Rocket 3.8 18:11:02 10° SSE 18:16:00 49° ENE 18:21:00 10° N
Cosmos 1812 3.0 18:12:52 10° N 18:16:34 43° E 18:20:15 10° SSE
Aureole 3 4.2 18:10:53 10° S 18:17:17 80° E 18:22:20 10° N
Cosmos 2263 Rocket 3.9 18:20:27 10° ESE 18:21:47 11° E 18:23:04 10° E
OAO 2 Rocket 3.5 18:20:29 10° W 18:25:24 62° NNW 18:29:58 12° ENE
Okean 3 3.6 18:22:10 10° N 18:26:13 49° E 18:30:16 10° SSE
Cosmos 2333 Rocket 3.8 18:21:12 10° NW 18:26:26 40° WSW 18:31:38 10° S
Cosmos 1674 Rocket 3.5 18:22:40 10° N 18:26:58 66° E 18:31:14 10° SSE
IUS-18 SRM-1 2.7 18:26:51 10° WSW 18:28:51 34° S 18:32:02 10° ESE
Cosmos 1908 Rocket 3.5 18:25:30 10° S 18:29:55 68° E 18:34:22 10° NNE
YAOGAN 1 4.1 18:27:24 10° S 18:31:29 41° W 18:35:35 10° NNW
Meteor 1-18 Rocket 4.4 18:27:06 10° N 18:32:27 46° E 18:37:43 10° SSE
Cosmos 1420 Rocket 4.3 18:28:42 10° N 18:33:46 45° ENE 18:38:50 10° SE
Cosmos 921 Rocket 4.2 18:30:50 10° NNE 18:34:24 23° ENE 18:37:55 10° ESE
Meteor 1-25 Rocket 4.2 18:29:35 10° S 18:35:07 89° ESE 18:40:42 10° N
FREGAT/IRIS 3.1 18:35:47 10° SE 18:38:29 34° ENE 18:41:13 10° N
Cosmos 2034 Rocket 4.3 18:34:31 10° N 18:40:32 43° E 18:46:30 10° SSE
Tiangong 2 1.7 18:37:46 10° NW 18:40:47 38° NNE 18:42:18 23° E
Cosmos 1437 Rocket 3.0 18:38:07 10° S 18:42:00 51° E 18:45:59 10° NNE
Cosmos 2227 4.3 18:37:03 10° S 18:42:36 52° ESE 18:48:07 10° NNE
Meteor 1-11 Rocket 4.5 18:40:44 10° SSE 18:45:21 28° E 18:50:03 10° NNE
EO 1 Del DPAF 4.5 18:42:25 10° N 18:46:04 44° WNW 18:49:42 10° SSW
Cosmos 44 Rocket 3.6 18:44:26 10° NNW 18:49:21 48° ENE 18:54:05 11° SE
ARGOS Delta rocket 4.0 18:46:32 10° NNE 18:51:00 42° E 18:55:16 10° SSE
SeaSat 1 3.6 18:50:15 20° ENE 18:51:11 22° ENE 18:54:52 10° N
Gbstr 26 Del rocket 2.8 18:48:36 10° SW 18:52:20 68° NW 18:55:11 16° NE
Meteor 1-4 Rocket 3.2 18:53:03 10° SSE 18:55:43 30° ESE 18:55:43 30° ESE
Sakura Rocket 3.9 18:54:13 10° WSW 18:59:35 73° S 19:03:57 25° E
Envisat 3.5 18:55:00 10° SE 18:59:35 36° ENE 19:04:12 10° N
USA 215 3.4 18:54:19 10° NE 19:00:51 76° NW 19:07:22 10° SW
COSMOS 2455 3.1 18:55:24 10° S 19:01:03 44° ESE 19:05:36 16° NE
Cosmos 1975 Rocket 3.3 18:58:22 10° N 19:02:38 44° E 19:06:54 10° SSE
Resurs 01 Rocket 3.7 19:06:03 13° NNE 19:06:03 13° NNE 19:06:48 10° NNE
FengYun 1-2 T 4.2 19:00:20 10° SSE 19:05:51 83° WSW 19:11:22 10° NNW
HJ-1C 3.3 19:02:53 10° SSE 19:06:16 68° ENE 19:09:40 10° N
CZ-4C R/B 4.5 19:06:50 10° NNE 19:10:39 14° NE 19:10:42 14° NE
BREEZE-M DEB (TANK) 3.1 19:08:24 10° SW 19:10:59 62° NW 19:15:24 15° NE
USA 32 4.4 19:06:43 10° S 19:11:54 67° W 19:17:07 10° N
Thor Agena Rocket 3.4 19:07:24 10° NNE 19:12:30 88° ESE 19:17:32 10° SSW
Cosmos 494 Rocket 3.9 19:08:31 10° S 19:13:41 64° ESE 19:18:49 10° NNE
Cosmos 44 3.8 19:10:42 10° NNW 19:15:49 68° WSW 19:21:07 10° SSE
Alouette 2 Rocket 3.5 19:15:18 10° S 19:18:25 48° SE 19:18:25 48° SE
SJ-6B 2.8 19:23:13 13° S 19:26:28 74° WSW 19:30:16 10° NNW
Tsikada Rocket 4.3 19:23:13 10° SSW 19:29:35 72° W 19:36:00 10° N
ERS-2 4.0 19:30:55 10° SSW 19:34:11 30° W 19:37:29 10° NW
SL-16 R/B 3.1 19:28:55 10° NNW 19:34:19 47° WSW 19:39:41 10° S
GPS 2-05 Rocket1 4.5 19:35:24 10° W 19:37:12 30° W 19:37:12 30° W
Meteor 1-13 Rocket 4.0 19:42:25 10° N 19:47:58 88° E 19:49:05 59° S
Okean 2 Rocket 4.3 19:44:13 10° SSW 19:48:20 41° W 19:52:30 10° N
CZ-2D R/B 4.3 19:47:40 38° SW 19:48:28 44° W 19:52:12 10° NNW
Cosmos 1603 3.9 19:47:28 10° NNW 19:52:03 57° N 19:52:03 57° N
Cosmos 2251 Rocket 3.8 19:52:28 10° SSW 19:56:36 57° SSW 19:56:36 57° SSW
Cosmos 2263 Rocket 2.3 19:59:28 10° SSW 20:04:56 68° WNW 20:04:56 68° WNW
SeaSat 1 4.2 20:30:03 30° WNW 20:30:03 30° WNW 20:33:00 10° NW
CZ-4C R/B 4.3 20:52:49 10° NNW 20:55:55 28° NNW 20:55:55 28° NNW
